Weather History for West Palm Beach, FL

Change the Weather History Date:

Sunday, October 20, 2013

  Actual Average Record
Temperature  
Mean Temperature 83 °F 78 °F  
Max Temperature 90 °F 84 °F 91 °F (1980)
Min Temperature 75 °F 71 °F 49 °F (1927)
Degree Days  
Heating Degree Days 0 0  
Month to date heating degree days 0 0  
Since 1 July heating degree days 0 0  
Cooling Degree Days 18 13  
Month to date cooling degree days 323 286  
Year to date cooling degree days 3696 3494  
Growing Degree Days 32 (Base 50)    
Moisture  
Dew Point 73 °F    
Average Humidity 70    
Maximum Humidity 88    
Minimum Humidity 52    
Precipitation  
Precipitation T in 0.15 in 5.15 in (1959)
Month to date precipitation 1.11 3.48  
Year to date precipitation 57.83 52.55  
Snow  
Snow 0.00 in - - ()
Month to date snowfall 0.0  
Since 1 July snowfall 0.0  
Since 1 September snowfall 0.0  
Snow Depth 0.00 in    
Sea Level Pressure  
Sea Level Pressure 29.92 in    
Wind  
Wind Speed 6 mph (South)    
Max Wind Speed 13 mph    
Max Gust Speed 25 mph    
Visibility 10 miles    
Events      
T = Trace of Precipitation, MM = Missing Value Source: NWS Daily Summary

Daily Weather History Graph

Daily Weather History Graph

Search for Another Location

Airport:

Trip Planner

Search our weather history database for the weather conditions in past years. The results will help you decide how hot, cold, wet, or windy it might be!

Date:

Astronomy

Oct. 20, 2013 Rise Set
Actual Time 7:22 AM EDT 6:47 PM EDT
Civil Twilight 6:59 AM EDT 7:10 PM EDT
Nautical Twilight 6:32 AM EDT 7:37 PM EDT
Astronomical Twilight 6:05 AM EDT 8:04 PM EDT
Moon 8:05 PM EDT 8:49 AM EDT
Length of Visible Light 12h 11m
Length of Day
11h 24m
Full, 97% of the Moon is Illuminated
Oct 20
Full
Oct 26
Last Quarter
Nov 3
New
Nov 10
First Quarter
Nov 17
Full

Hourly Weather History & Observations

Time (EDT) Temp. Heat Index Dew Point Humidity Pressure Visibility Wind Dir Wind Speed Gust Speed Precip Events Conditions
12:53 AM 81.0 °F 85.2 °F 72.0 °F 74% 29.92 in 10.0 mi SSE 8.1 mph - N/A   Scattered Clouds
1:53 AM 81.0 °F 85.2 °F 72.0 °F 74% 29.91 in 10.0 mi SSE 4.6 mph - N/A   Partly Cloudy
2:53 AM 80.1 °F 83.8 °F 72.0 °F 76% 29.89 in 10.0 mi South 4.6 mph - N/A   Partly Cloudy
3:53 AM 79.0 °F - 73.0 °F 82% 29.88 in 10.0 mi SSE 3.5 mph - N/A   Partly Cloudy
4:53 AM 79.0 °F - 73.0 °F 82% 29.88 in 10.0 mi South 3.5 mph - N/A   Clear
5:53 AM 79.0 °F - 73.0 °F 82% 29.89 in 10.0 mi South 3.5 mph - N/A   Partly Cloudy
6:36 AM 77.0 °F - 73.4 °F 89% 29.91 in 10.0 mi West 4.6 mph - N/A   Mostly Cloudy
6:53 AM 77.0 °F - 73.0 °F 88% 29.91 in 10.0 mi West 3.5 mph - N/A   Mostly Cloudy
7:53 AM 78.1 °F - 73.0 °F 84% 29.93 in 10.0 mi Calm Calm - N/A   Mostly Cloudy
8:35 AM 80.6 °F 85.4 °F 73.4 °F 79% 29.94 in 10.0 mi SW 4.6 mph - 0.00 in   Mostly Cloudy
8:53 AM 81.0 °F 86.2 °F 73.9 °F 79% 29.94 in 10.0 mi WSW 4.6 mph - 0.00 in   Scattered Clouds
9:53 AM 84.0 °F 91.2 °F 73.9 °F 72% 29.95 in 10.0 mi WSW 6.9 mph - N/A   Mostly Cloudy
10:17 AM 84.2 °F 90.9 °F 73.4 °F 70% 29.95 in 10.0 mi WSW 6.9 mph - N/A   Mostly Cloudy
10:53 AM 84.9 °F 90.7 °F 72.0 °F 65% 29.95 in 10.0 mi SW 6.9 mph - N/A   Mostly Cloudy
11:53 AM 84.9 °F 90.1 °F 71.1 °F 63% 29.95 in 10.0 mi WSW 5.8 mph - N/A   Mostly Cloudy
12:22 PM 86.0 °F 91.8 °F 71.6 °F 62% 29.95 in 10.0 mi WSW 5.8 mph - N/A   Mostly Cloudy
12:53 PM 86.0 °F 91.5 °F 71.1 °F 61% 29.94 in 10.0 mi WSW 3.5 mph - N/A   Mostly Cloudy
1:53 PM 89.1 °F 94.1 °F 70.0 °F 53% 29.92 in 10.0 mi NNE 3.5 mph - N/A   Mostly Cloudy
2:53 PM 86.0 °F 93.0 °F 73.0 °F 65% 29.90 in 10.0 mi ESE 9.2 mph - N/A   Mostly Cloudy
3:53 PM 87.1 °F 95.4 °F 73.9 °F 65% 29.89 in 10.0 mi SE 10.4 mph - N/A   Scattered Clouds
4:53 PM 86.0 °F 93.0 °F 73.0 °F 65% 29.90 in 10.0 mi SE 10.4 mph - N/A   Partly Cloudy
5:53 PM 84.9 °F 91.4 °F 73.0 °F 67% 29.91 in 10.0 mi ESE 11.5 mph - N/A   Scattered Clouds
6:53 PM 82.9 °F 88.8 °F 73.0 °F 72% 29.92 in 10.0 mi SE 8.1 mph - N/A   Mostly Cloudy
7:53 PM 82.9 °F 89.4 °F 73.9 °F 74% 29.93 in 10.0 mi SE 10.4 mph - N/A   Mostly Cloudy
8:53 PM 82.0 °F 87.9 °F 73.9 °F 76% 29.94 in 10.0 mi South 9.2 mph - N/A   Mostly Cloudy
9:53 PM 82.0 °F 87.9 °F 73.9 °F 76% 29.95 in 10.0 mi South 4.6 mph - N/A   Mostly Cloudy
10:53 PM 82.0 °F 87.4 °F 73.0 °F 74% 29.96 in 10.0 mi South 3.5 mph - N/A   Mostly Cloudy
11:53 PM 81.0 °F 85.8 °F 73.0 °F 77% 29.96 in 10.0 mi SSE 4.6 mph - N/A   Mostly Cloudy